| time (UTC) | temp F | wind direction | speed MPH | gust MPH | rain 1hr in | rain 24hr in | rain mn in | humidity % | barometer mb |
| 20260902203718 | 60 | 350 | 0.0 | 0.0 | 0.00 | 0.00 | 0.00 | 71 | 1024.3 |
| 20260902202727 | 60 | 346 | 0.0 | 0.0 | 0.00 | 0.00 | 0.00 | 69 | 1024.0 |
| 20260902202231 | 60 | 355 | 0.0 | 0.0 | 0.00 | 0.00 | 0.00 | 68 | 1024.0 |
| 20260902201716 | 60 | 355 | 0.0 | 0.0 | 0.00 | 0.00 | 0.00 | 68 | 1024.1 |
| 20260902201217 | 61 | 355 | 0.0 | 0.0 | 0.00 | 0.00 | 0.00 | 68 | 1024.1 |
| 20260902200728 | 61 | 355 | 0.0 | 0.0 | 0.00 | 0.00 | 0.00 | 67 | 1024.1 |
| 20260902200241 | 61 | 351 | 0.0 | 0.0 | 0.00 | 0.00 | 0.00 | 66 | 1024.0 |
| 20260902195712 | 61 | 38 | 0.0 | 0.0 | 0.00 | 0.00 | 0.00 | 66 | 1024.0 |
| 20260902195218 | 61 | 328 | 0.0 | 0.0 | 0.00 | 0.00 | 0.00 | 66 | 1023.9 |
| 20260902194710 | 62 | 334 | 0.0 | 0.0 | 0.00 | 0.00 | 0.00 | 65 | 1024.0 |
| 20260902193721 | 62 | 5 | 0.0 | 0.0 | 0.00 | 0.00 | 0.00 | 65 | 1023.9 |
| 20260902193222 | 62 | 0 | 0.0 | 0.0 | 0.00 | 0.00 | 0.00 | 64 | 1023.9 |
| 20260902192730 | 62 | 5 | 0.0 | 0.0 | 0.00 | 0.00 | 0.00 | 64 | 1023.9 |
| 20260902192234 | 62 | 5 | 0.0 | 0.0 | 0.00 | 0.00 | 0.00 | 64 | 1023.8 |
| 20260902191722 | 63 | 5 | 0.0 | 0.0 | 0.00 | 0.00 | 0.00 | 64 | 1023.8 |
| 20260902191214 | 63 | 5 | 0.0 | 0.0 | 0.00 | 0.00 | 0.00 | 64 | 1023.7 |
| 20260902190214 | 64 | 339 | 0.0 | 0.0 | 0.00 | 0.00 | 0.00 | 64 | 1023.7 |
| 20260902185716 | 64 | 26 | 0.0 | 0.0 | 0.00 | 0.00 | 0.00 | 63 | 1023.6 |
| 20260902185225 | 65 | 0 | 0.0 | 0.0 | 0.00 | 0.00 | 0.00 | 62 | 1023.6 |
| 20260902184718 | 65 | 355 | 0.0 | 0.0 | 0.00 | 0.00 | 0.00 | 62 | 1023.5 |
| 20260902184221 | 66 | 74 | 0.0 | 0.0 | 0.00 | 0.00 | 0.00 | 61 | 1023.4 |
| 20260902183728 | 66 | 350 | 0.0 | 0.0 | 0.00 | 0.00 | 0.00 | 61 | 1023.4 |
| 20260902183231 | 67 | 344 | 0.0 | 1.0 | 0.00 | 0.00 | 0.00 | 61 | 1023.4 |
| 20260902182718 | 67 | 345 | 0.0 | 5.0 | 0.00 | 0.00 | 0.00 | 60 | 1023.4 |
| 20260902182223 | 67 | 345 | 0.0 | 5.0 | 0.00 | 0.00 | 0.00 | 60 | 1023.4 |
| 20260902181713 | 67 | 313 | 0.0 | 4.0 | 0.00 | 0.00 | 0.00 | 57 | 1023.2 |
| 20260902180707 | 68 | 71 | 0.0 | 3.0 | 0.00 | 0.00 | 0.00 | 57 | 1023.2 |
| 20260902180219 | 68 | 50 | 0.0 | 3.0 | 0.00 | 0.00 | 0.00 | 57 | 1023.2 |
| 20260902175723 | 68 | 83 | 0.0 | 3.0 | 0.00 | 0.00 | 0.00 | 58 | 1023.2 |
| 20260902175226 | 68 | 330 | 0.0 | 11.0 | 0.00 | 0.00 | 0.00 | 57 | 1023.1 |
| 20260902174227 | 68 | 328 | 2.0 | 11.0 | 0.00 | 0.00 | 0.00 | 56 | 1023.0 |
| 20260902173714 | 69 | 334 | 0.0 | 0.0 | 0.00 | 0.00 | 0.00 | 56 | 1023.0 |
| 20260902173220 | 69 | 333 | 0.0 | 0.0 | 0.00 | 0.00 | 0.00 | 58 | 1022.8 |
| 20260902172722 | 69 | 66 | 0.0 | 0.0 | 0.00 | 0.00 | 0.00 | 56 | 1022.8 |
| 20260902172214 | 69 | 317 | 0.0 | 0.0 | 0.00 | 0.00 | 0.00 | 57 | 1022.7 |
| 20260902171712 | 70 | 344 | 0.0 | 0.0 | 0.00 | 0.00 | 0.00 | 57 | 1022.8 |
| 20260902171220 | 70 | 342 | 0.0 | 0.0 | 0.00 | 0.00 | 0.00 | 56 | 1022.7 |
| 20260902170719 | 71 | 310 | 0.0 | 0.0 | 0.00 | 0.00 | 0.00 | 55 | 1022.7 |
| 20260902170247 | 71 | 310 | 0.0 | 0.0 | 0.00 | 0.00 | 0.00 | 53 | 1022.7 |
| 20260902165715 | 71 | 292 | 0.0 | 0.0 | 0.00 | 0.00 | 0.00 | 52 | 1022.7 |
| 20260902165228 | 72 | 63 | 0.0 | 0.0 | 0.00 | 0.00 | 0.00 | 49 | 1022.6 |
| 20260902164721 | 72 | 24 | 0.0 | 0.0 | 0.00 | 0.00 | 0.00 | 49 | 1022.6 |
| 20260902164211 | 73 | 16 | 0.0 | 0.0 | 0.00 | 0.00 | 0.00 | 49 | 1022.5 |
| 20260902163210 | 73 | 169 | 0.0 | 11.0 | 0.00 | 0.00 | 0.00 | 47 | 1022.6 |
| 20260902162723 | 73 | 90 | 2.0 | 11.0 | 0.00 | 0.00 | 0.00 | 46 | 1022.7 |
| 20260902161716 | 73 | 58 | 1.0 | 9.0 | 0.00 | 0.00 | 0.00 | 47 | 1022.7 |
| 20260902161212 | 74 | 113 | 1.0 | 9.0 | 0.00 | 0.00 | 0.00 | 45 | 1022.7 |
| 20260902160711 | 74 | 197 | 1.0 | 9.0 | 0.00 | 0.00 | 0.00 | 45 | 1022.7 |
| 20260902160245 | 74 | 156 | 1.0 | 12.0 | 0.00 | 0.00 | 0.00 | 44 | 1022.6 |
| 20260902155722 | 74 | 142 | 2.0 | 18.0 | 0.00 | 0.00 | 0.00 | 45 | 1022.7 |
| 20260902154724 | 73 | 196 | 6.0 | 15.0 | 0.00 | 0.00 | 0.00 | 45 | 1022.8 |
| 20260902154220 | 73 | 340 | 4.0 | 15.0 | 0.00 | 0.00 | 0.00 | 46 | 1022.6 |
| 20260902153211 | 73 | 0 | 3.0 | 13.0 | 0.00 | 0.00 | 0.00 | 44 | 1022.7 |
| 20260902151732 | 73 | 25 | 3.0 | 11.0 | 0.00 | 0.00 | 0.00 | 43 | 1022.8 |
| 20260902151218 | 73 | 79 | 4.0 | 11.0 | 0.00 | 0.00 | 0.00 | 42 | 1022.7 |
| 20260902150716 | 74 | 70 | 3.0 | 11.0 | 0.00 | 0.00 | 0.00 | 41 | 1022.7 |
| 20260902150223 | 74 | 19 | 2.0 | 11.0 | 0.00 | 0.00 | 0.00 | 42 | 1022.6 |
| 20260902145709 | 75 | 234 | 4.0 | 11.0 | 0.00 | 0.00 | 0.00 | 40 | 1022.6 |
| 20260902145228 | 75 | 297 | 4.0 | 11.0 | 0.00 | 0.00 | 0.00 | 40 | 1022.6 |
| 20260902144728 | 75 | 314 | 2.0 | 13.0 | 0.00 | 0.00 | 0.00 | 41 | 1022.7 |
| 20260902144221 | 74 | 334 | 4.0 | 13.0 | 0.00 | 0.00 | 0.00 | 40 | 1022.6 |
| 20260902143722 | 74 | 340 | 4.0 | 13.0 | 0.00 | 0.00 | 0.00 | 40 | 1022.8 |
| 20260902143229 | 74 | 295 | 3.0 | 8.0 | 0.00 | 0.00 | 0.00 | 39 | 1022.7 |
| 20260902142716 | 74 | 343 | 3.0 | 8.0 | 0.00 | 0.00 | 0.00 | 40 | 1022.7 |
| 20260902142229 | 74 | 302 | 3.0 | 11.0 | 0.00 | 0.00 | 0.00 | 36 | 1022.8 |
| 20260902141716 | 74 | 320 | 2.0 | 11.0 | 0.00 | 0.00 | 0.00 | 37 | 1022.8 |
| 20260902141217 | 74 | 333 | 4.0 | 14.0 | 0.00 | 0.00 | 0.00 | 36 | 1022.8 |
| 20260902140726 | 74 | 22 | 5.0 | 14.0 | 0.00 | 0.00 | 0.00 | 35 | 1022.7 |
| 20260902140224 | 75 | 124 | 6.0 | 16.0 | 0.00 | 0.00 | 0.00 | 36 | 1022.7 |
| 20260902135213 | 75 | 323 | 5.0 | 16.0 | 0.00 | 0.00 | 0.00 | 39 | 1022.7 |
| 20260902134712 | 75 | 5 | 4.0 | 12.0 | 0.00 | 0.00 | 0.00 | 38 | 1022.8 |
| 20260902134216 | 75 | 299 | 3.0 | 12.0 | 0.00 | 0.00 | 0.00 | 37 | 1022.7 |
| 20260902133706 | 76 | 342 | 3.0 | 12.0 | 0.00 | 0.00 | 0.00 | 35 | 1022.7 |
| 20260902133225 | 76 | 314 | 2.0 | 13.0 | 0.00 | 0.00 | 0.00 | 34 | 1022.7 |
| 20260902132712 | 76 | 79 | 2.0 | 13.0 | 0.00 | 0.00 | 0.00 | 35 | 1022.7 |
| 20260902131224 | 75 | 292 | 1.0 | 9.0 | 0.00 | 0.00 | 0.00 | 34 | 1023.0 |
| 20260902130719 | 75 | 254 | 2.0 | 10.0 | 0.00 | 0.00 | 0.00 | 33 | 1023.0 |
| 20260902125727 | 74 | 62 | 5.0 | 14.0 | 0.00 | 0.00 | 0.00 | 36 | 1023.0 |
| 20260902125235 | 74 | 344 | 7.0 | 14.0 | 0.00 | 0.00 | 0.00 | 35 | 1023.0 |
| 20260902124711 | 74 | 278 | 5.0 | 11.0 | 0.00 | 0.00 | 0.00 | 37 | 1023.1 |
| 20260902124210 | 74 | 328 | 4.0 | 14.0 | 0.00 | 0.00 | 0.00 | 42 | 1023.2 |
| 20260902123718 | 74 | 326 | 4.0 | 14.0 | 0.00 | 0.00 | 0.00 | 41 | 1023.1 |
| 20260902123218 | 75 | 102 | 5.0 | 14.0 | 0.00 | 0.00 | 0.00 | 41 | 1023.1 |
| 20260902122720 | 75 | 348 | 5.0 | 12.0 | 0.00 | 0.00 | 0.00 | 42 | 1023.0 |
| 20260902122224 | 75 | 298 | 5.0 | 12.0 | 0.00 | 0.00 | 0.00 | 44 | 1023.0 |
| 20260902121718 | 75 | 333 | 2.0 | 9.0 | 0.00 | 0.00 | 0.00 | 44 | 1023.0 |
| 20260902121208 | 76 | 248 | 1.0 | 10.0 | 0.00 | 0.00 | 0.00 | 41 | 1023.0 |
| 20260902120723 | 76 | 334 | 3.0 | 10.0 | 0.00 | 0.00 | 0.00 | 45 | 1023.1 |
| 20260902120222 | 75 | 340 | 2.0 | 8.0 | 0.00 | 0.00 | 0.00 | 45 | 1023.1 |
| 20260902115726 | 75 | 151 | 1.0 | 8.0 | 0.00 | 0.00 | 0.00 | 45 | 1023.0 |
| 20260902115220 | 74 | 344 | 1.0 | 11.0 | 0.00 | 0.00 | 0.00 | 47 | 1023.0 |
| 20260902114722 | 73 | 339 | 2.0 | 11.0 | 0.00 | 0.00 | 0.00 | 47 | 1023.1 |
| 20260902114227 | 73 | 109 | 4.0 | 11.0 | 0.00 | 0.00 | 0.00 | 49 | 1023.1 |
| 20260902113721 | 73 | 329 | 4.0 | 11.0 | 0.00 | 0.00 | 0.00 | 49 | 1023.1 |
| 20260902113209 | 73 | 333 | 3.0 | 11.0 | 0.00 | 0.00 | 0.00 | 49 | 1023.2 |
| 20260902111728 | 73 | 322 | 3.0 | 9.0 | 0.00 | 0.00 | 0.00 | 51 | 1023.2 |
| 20260902111217 | 73 | 284 | 3.0 | 9.0 | 0.00 | 0.00 | 0.00 | 51 | 1023.3 |
| 20260902110714 | 72 | 333 | 4.0 | 10.0 | 0.00 | 0.00 | 0.00 | 51 | 1023.3 |
| 20260902104718 | 72 | 275 | 1.0 | 6.0 | 0.00 | 0.00 | 0.00 | 48 | 1023.3 |
| 20260902103722 | 73 | 337 | 1.0 | 6.0 | 0.00 | 0.00 | 0.00 | 48 | 1023.4 |
| 20260902102719 | 72 | 183 | 1.0 | 5.0 | 0.00 | 0.00 | 0.00 | 50 | 1023.4 |
| 20260902102211 | 71 | 175 | 0.0 | 0.0 | 0.00 | 0.00 | 0.00 | 53 | 1023.4 |
| 20260902101213 | 71 | 5 | 1.0 | 6.0 | 0.00 | 0.00 | 0.00 | 52 | 1023.5 |
| 20260902100736 | 70 | 249 | 3.0 | 6.0 | 0.00 | 0.00 | 0.00 | 52 | 1023.4 |
| 20260902100215 | 71 | 121 | 2.0 | 6.0 | 0.00 | 0.00 | 0.00 | 52 | 1023.5 |
| 20260902095720 | 71 | 169 | 1.0 | 6.0 | 0.00 | 0.00 | 0.00 | 51 | 1023.4 |
| 20260902095226 | 71 | 142 | 2.0 | 7.0 | 0.00 | 0.00 | 0.00 | 53 | 1023.5 |
| 20260902094731 | 70 | 160 | 2.0 | 7.0 | 0.00 | 0.00 | 0.00 | 54 | 1023.5 |
| 20260902094221 | 70 | 230 | 2.0 | 7.0 | 0.00 | 0.00 | 0.00 | 53 | 1023.5 |
| 20260902093720 | 70 | 169 | 1.0 | 7.0 | 0.00 | 0.00 | 0.00 | 55 | 1023.6 |
| 20260902093209 | 70 | 180 | 1.0 | 8.0 | 0.00 | 0.00 | 0.00 | 54 | 1023.5 |
| 20260902092709 | 69 | 187 | 3.0 | 8.0 | 0.00 | 0.00 | 0.00 | 54 | 1023.5 |
| 20260902092235 | 69 | 163 | 3.0 | 7.0 | 0.00 | 0.00 | 0.00 | 55 | 1023.5 |
| 20260902091717 | 69 | 173 | 2.0 | 6.0 | 0.00 | 0.00 | 0.00 | 56 | 1023.5 |
| 20260902091215 | 68 | 131 | 2.0 | 6.0 | 0.00 | 0.00 | 0.00 | 57 | 1023.5 |
| 20260902090722 | 68 | 172 | 2.0 | 6.0 | 0.00 | 0.00 | 0.00 | 57 | 1023.6 |
| 20260902090227 | 67 | 113 | 1.0 | 4.0 | 0.00 | 0.00 | 0.00 | 57 | 1023.5 |
| 20260902085720 | 68 | 175 | 0.0 | 0.0 | 0.00 | 0.00 | 0.00 | 58 | 1023.6 |
| 20260902084212 | 67 | 163 | 0.0 | 0.0 | 0.00 | 0.00 | 0.00 | 61 | 1023.4 |
| 20260902083716 | 67 | 173 | 0.0 | 0.0 | 0.00 | 0.00 | 0.00 | 65 | 1023.5 |
| 20260902083227 | 65 | 151 | 0.0 | 0.0 | 0.00 | 0.00 | 0.00 | 69 | 1023.5 |
| 20260902082733 | 65 | 205 | 0.0 | 0.0 | 0.00 | 0.00 | 0.00 | 70 | 1023.5 |
| 20260902082220 | 64 | 153 | 0.0 | 0.0 | 0.00 | 0.00 | 0.00 | 72 | 1023.4 |
| 20260902081723 | 64 | 164 | 0.0 | 0.0 | 0.00 | 0.00 | 0.00 | 72 | 1023.3 |
| 20260902081224 | 64 | 178 | 0.0 | 0.0 | 0.00 | 0.00 | 0.00 | 72 | 1023.1 |
| 20260902080719 | 64 | 240 | 0.0 | 0.0 | 0.00 | 0.00 | 0.00 | 72 | 1023.2 |
| 20260902080227 | 64 | 240 | 0.0 | 0.0 | 0.00 | 0.00 | 0.00 | 69 | 1023.3 |
| 20260902075226 | 64 | 223 | 0.0 | 0.0 | 0.00 | 0.00 | 0.00 | 70 | 1023.1 |
| 20260902074725 | 64 | 223 | 0.0 | 0.0 | 0.00 | 0.00 | 0.00 | 69 | 1023.0 |
| 20260902073728 | 63 | 248 | 0.0 | 0.0 | 0.00 | 0.00 | 0.00 | 72 | 1023.1 |
| 20260902073216 | 62 | 176 | 0.0 | 0.0 | 0.00 | 0.00 | 0.00 | 71 | 1023.1 |
| 20260902072223 | 61 | 176 | 0.0 | 0.0 | 0.00 | 0.00 | 0.00 | 77 | 1022.8 |
| 20260902071718 | 60 | 124 | 0.0 | 0.0 | 0.00 | 0.00 | 0.00 | 77 | 1022.8 |
| 20260902071219 | 59 | 124 | 0.0 | 0.0 | 0.00 | 0.00 | 0.00 | 78 | 1023.0 |
| 20260902070721 | 58 | 124 | 0.0 | 0.0 | 0.00 | 0.00 | 0.00 | 79 | 1023.1 |
| 20260902070213 | 58 | 124 | 0.0 | 0.0 | 0.00 | 0.00 | 0.00 | 79 | 1023.1 |
| 20260902065717 | 57 | 124 | 0.0 | 0.0 | 0.00 | 0.00 | 0.00 | 81 | 1023.1 |
| 20260902065218 | 56 | 115 | 0.0 | 0.0 | 0.00 | 0.00 | 0.00 | 84 | 1023.2 |
| 20260902064717 | 55 | 115 | 0.0 | 0.0 | 0.00 | 0.00 | 0.00 | 84 | 1023.2 |
| 20260902064215 | 55 | 134 | 0.0 | 0.0 | 0.00 | 0.00 | 0.00 | 84 | 1023.1 |
| 20260902063720 | 55 | 130 | 0.0 | 0.0 | 0.00 | 0.00 | 0.00 | 84 | 1023.1 |
| 20260902063224 | 55 | 84 | 0.0 | 0.0 | 0.00 | 0.00 | 0.00 | 84 | 1023.1 |
| 20260902062210 | 54 | 144 | 0.0 | 0.0 | 0.00 | 0.00 | 0.00 | 85 | 1023.0 |
| 20260902061225 | 54 | 144 | 0.0 | 0.0 | 0.00 | 0.00 | 0.00 | 84 | 1023.1 |
| 20260902060723 | 53 | 144 | 0.0 | 0.0 | 0.00 | 0.00 | 0.00 | 85 | 1023.1 |
| 20260902060223 | 53 | 144 | 0.0 | 0.0 | 0.00 | 0.00 | 0.00 | 84 | 1023.2 |
| 20260902055723 | 53 | 329 | 0.0 | 0.0 | 0.00 | 0.00 | 0.00 | 85 | 1023.2 |
| 20260902055219 | 53 | 327 | 0.0 | 0.0 | 0.00 | 0.00 | 0.00 | 85 | 1023.2 |
| 20260902054207 | 52 | 118 | 0.0 | 0.0 | 0.00 | 0.00 | 0.00 | 84 | 1023.1 |
| 20260902053709 | 52 | 118 | 0.0 | 0.0 | 0.00 | 0.00 | 0.00 | 84 | 1023.1 |
| 20260902053215 | 52 | 118 | 0.0 | 0.0 | 0.00 | 0.00 | 0.00 | 84 | 1023.1 |
| 20260902052726 | 52 | 118 | 0.0 | 0.0 | 0.00 | 0.00 | 0.00 | 84 | 1023.1 |
| 20260902051730 | 52 | 118 | 0.0 | 0.0 | 0.00 | 0.00 | 0.00 | 84 | 1023.1 |
| 20260902051220 | 52 | 118 | 0.0 | 0.0 | 0.00 | 0.00 | 0.00 | 84 | 1023.0 |
| 20260902050721 | 52 | 118 | 0.0 | 0.0 | 0.00 | 0.00 | 0.00 | 84 | 1023.0 |
| 20260902050223 | 52 | 118 | 0.0 | 0.0 | 0.00 | 0.00 | 0.00 | 84 | 1023.0 |
| 20260902045720 | 52 | 118 | 0.0 | 0.0 | 0.00 | 0.00 | 0.00 | 84 | 1023.0 |
| 20260902045219 | 52 | 118 | 0.0 | 0.0 | 0.00 | 0.00 | 0.00 | 84 | 1022.8 |
| 20260902044719 | 52 | 118 | 0.0 | 0.0 | 0.00 | 0.00 | 0.00 | 84 | 1022.7 |
| 20260902043717 | 52 | 118 | 0.0 | 0.0 | 0.00 | 0.00 | 0.00 | 84 | 1022.8 |
| 20260902043216 | 52 | 118 | 0.0 | 0.0 | 0.00 | 0.00 | 0.00 | 84 | 1022.8 |
| 20260902042731 | 52 | 118 | 0.0 | 0.0 | 0.00 | 0.00 | 0.00 | 85 | 1022.8 |
| 20260902042226 | 52 | 118 | 0.0 | 0.0 | 0.00 | 0.00 | 0.00 | 85 | 1022.7 |
| 20260902041712 | 52 | 118 | 0.0 | 0.0 | 0.00 | 0.00 | 0.00 | 85 | 1022.8 |
| 20260902041211 | 52 | 118 | 0.0 | 0.0 | 0.00 | 0.00 | 0.00 | 85 | 1022.8 |
| 20260902040723 | 52 | 118 | 0.0 | 0.0 | 0.00 | 0.00 | 0.00 | 85 | 1022.8 |
| 20260902040238 | 52 | 118 | 0.0 | 0.0 | 0.00 | 0.00 | 0.00 | 85 | 1022.8 |
| 20260902035717 | 52 | 118 | 0.0 | 0.0 | 0.00 | 0.00 | 0.00 | 84 | 1022.7 |
| 20260902035211 | 52 | 118 | 0.0 | 0.0 | 0.00 | 0.00 | 0.00 | 85 | 1022.7 |
| 20260902034720 | 52 | 118 | 0.0 | 0.0 | 0.00 | 0.00 | 0.00 | 85 | 1022.7 |
| 20260902034213 | 52 | 118 | 0.0 | 0.0 | 0.00 | 0.00 | 0.00 | 84 | 1022.8 |
| 20260902033715 | 52 | 117 | 0.0 | 0.0 | 0.00 | 0.00 | 0.00 | 84 | 1022.7 |
| 20260902033215 | 52 | 89 | 0.0 | 0.0 | 0.00 | 0.00 | 0.00 | 84 | 1023.0 |
| 20260902032728 | 52 | 89 | 0.0 | 0.0 | 0.00 | 0.00 | 0.00 | 84 | 1023.0 |
| 20260902032225 | 52 | 89 | 0.0 | 0.0 | 0.00 | 0.00 | 0.00 | 84 | 1023.0 |
| 20260902031723 | 52 | 88 | 0.0 | 0.0 | 0.00 | 0.00 | 0.00 | 84 | 1023.0 |
| 20260902031238 | 52 | 88 | 0.0 | 0.0 | 0.00 | 0.00 | 0.00 | 84 | 1023.0 |
| 20260902030717 | 52 | 88 | 0.0 | 0.0 | 0.00 | 0.00 | 0.00 | 84 | 1023.0 |
| 20260902025720 | 52 | 88 | 0.0 | 0.0 | 0.00 | 0.00 | 0.00 | 83 | 1023.1 |
| 20260902025221 | 52 | 88 | 0.0 | 0.0 | 0.00 | 0.00 | 0.00 | 83 | 1023.0 |
| 20260902024729 | 52 | 88 | 0.0 | 0.0 | 0.00 | 0.00 | 0.00 | 83 | 1023.1 |
| 20260902024231 | 53 | 88 | 0.0 | 0.0 | 0.00 | 0.00 | 0.00 | 83 | 1023.1 |
| 20260902023724 | 53 | 88 | 0.0 | 0.0 | 0.00 | 0.00 | 0.00 | 83 | 1023.2 |
| 20260902023225 | 53 | 88 | 0.0 | 0.0 | 0.00 | 0.00 | 0.00 | 83 | 1023.0 |
| 20260902022718 | 53 | 88 | 0.0 | 0.0 | 0.00 | 0.00 | 0.00 | 83 | 1023.0 |
| 20260902022218 | 53 | 84 | 0.0 | 0.0 | 0.00 | 0.00 | 0.00 | 83 | 1023.1 |
| 20260902021722 | 53 | 84 | 0.0 | 0.0 | 0.00 | 0.00 | 0.00 | 83 | 1023.0 |
| 20260902021215 | 53 | 84 | 0.0 | 0.0 | 0.00 | 0.00 | 0.00 | 83 | 1023.0 |
| 20260902020729 | 53 | 84 | 0.0 | 0.0 | 0.00 | 0.00 | 0.00 | 83 | 1023.0 |
| 20260902020211 | 53 | 84 | 0.0 | 0.0 | 0.00 | 0.00 | 0.00 | 82 | 1022.8 |
| 20260902015719 | 53 | 84 | 0.0 | 0.0 | 0.00 | 0.00 | 0.00 | 82 | 1023.0 |
| 20260902014722 | 53 | 84 | 0.0 | 0.0 | 0.00 | 0.00 | 0.00 | 82 | 1023.0 |
| 20260902014225 | 53 | 84 | 0.0 | 0.0 | 0.00 | 0.00 | 0.00 | 82 | 1023.0 |
| 20260902013706 | 53 | 84 | 0.0 | 0.0 | 0.00 | 0.00 | 0.00 | 81 | 1023.0 |
| 20260902013214 | 53 | 84 | 0.0 | 0.0 | 0.00 | 0.00 | 0.00 | 81 | 1022.8 |
| 20260902012710 | 53 | 84 | 0.0 | 0.0 | 0.00 | 0.00 | 0.00 | 81 | 1023.0 |
| 20260902012218 | 53 | 84 | 0.0 | 0.0 | 0.00 | 0.00 | 0.00 | 81 | 1023.0 |
| 20260902011715 | 53 | 84 | 0.0 | 0.0 | 0.00 | 0.00 | 0.00 | 81 | 1023.1 |
| 20260902011217 | 53 | 84 | 0.0 | 0.0 | 0.00 | 0.00 | 0.00 | 81 | 1023.1 |
| 20260902010726 | 54 | 61 | 0.0 | 0.0 | 0.00 | 0.00 | 0.00 | 81 | 1023.2 |
| 20260902010217 | 54 | 61 | 0.0 | 0.0 | 0.00 | 0.00 | 0.00 | 81 | 1023.1 |
| 20260902005712 | 54 | 61 | 0.0 | 0.0 | 0.00 | 0.00 | 0.00 | 81 | 1023.2 |
| 20260902005230 | 54 | 20 | 0.0 | 0.0 | 0.00 | 0.00 | 0.00 | 81 | 1023.3 |
| 20260902004714 | 54 | 58 | 0.0 | 0.0 | 0.00 | 0.00 | 0.00 | 80 | 1023.3 |
| 20260902004216 | 54 | 58 | 0.0 | 0.0 | 0.00 | 0.00 | 0.00 | 80 | 1023.3 |
| 20260902003721 | 54 | 22 | 0.0 | 0.0 | 0.00 | 0.00 | 0.00 | 80 | 1023.3 |
| 20260902003225 | 54 | 11 | 0.0 | 0.0 | 0.00 | 0.00 | 0.00 | 80 | 1023.3 |
| 20260902002719 | 54 | 11 | 0.0 | 0.0 | 0.00 | 0.00 | 0.00 | 80 | 1023.3 |
| 20260902002212 | 54 | 11 | 0.0 | 0.0 | 0.00 | 0.00 | 0.00 | 80 | 1023.3 |
| 20260902001732 | 54 | 11 | 0.0 | 0.0 | 0.00 | 0.00 | 0.00 | 80 | 1023.3 |
| 20260902001216 | 54 | 11 | 0.0 | 0.0 | 0.00 | 0.00 | 0.00 | 80 | 1023.4 |
| 20260902000711 | 54 | 12 | 0.0 | 0.0 | 0.00 | 0.00 | 0.00 | 80 | 1023.5 |
| 20260902000215 | 54 | 12 | 0.0 | 0.0 | 0.00 | 0.00 | 0.00 | 81 | 1023.5 |
| 20260901235223 | 54 | 88 | 0.0 | 0.0 | 0.00 | 0.00 | 0.00 | 81 | 1023.5 |
| 20260901234731 | 54 | 88 | 0.0 | 0.0 | 0.00 | 0.00 | 0.00 | 80 | 1023.5 |
| 20260901234225 | 54 | 88 | 0.0 | 0.0 | 0.00 | 0.00 | 0.00 | 80 | 1023.6 |
| 20260901233707 | 55 | 88 | 0.0 | 0.0 | 0.00 | 0.00 | 0.00 | 79 | 1023.6 |
| 20260901233214 | 55 | 48 | 0.0 | 0.0 | 0.00 | 0.00 | 0.00 | 79 | 1023.5 |
| 20260901232220 | 55 | 52 | 0.0 | 0.0 | 0.00 | 0.00 | 0.00 | 79 | 1023.5 |
| 20260901231709 | 55 | 52 | 0.0 | 0.0 | 0.00 | 0.00 | 0.00 | 79 | 1023.5 |
| 20260901231219 | 55 | 50 | 0.0 | 0.0 | 0.00 | 0.00 | 0.00 | 79 | 1023.5 |
| 20260901230225 | 55 | 92 | 0.0 | 0.0 | 0.00 | 0.00 | 0.00 | 78 | 1023.6 |
| 20260901225717 | 55 | 31 | 0.0 | 0.0 | 0.00 | 0.00 | 0.00 | 78 | 1023.6 |
| 20260901225219 | 56 | 31 | 0.0 | 0.0 | 0.00 | 0.00 | 0.00 | 78 | 1023.5 |
| 20260901224709 | 56 | 104 | 0.0 | 0.0 | 0.00 | 0.00 | 0.00 | 77 | 1023.5 |
| 20260901223721 | 56 | 104 | 0.0 | 0.0 | 0.00 | 0.00 | 0.00 | 77 | 1023.5 |
| 20260901223229 | 56 | 113 | 0.0 | 0.0 | 0.00 | 0.00 | 0.00 | 77 | 1023.5 |
| 20260901222730 | 56 | 30 | 0.0 | 0.0 | 0.00 | 0.00 | 0.00 | 77 | 1023.5 |
| 20260901222218 | 56 | 109 | 0.0 | 0.0 | 0.00 | 0.00 | 0.00 | 76 | 1023.5 |
| 20260901221716 | 56 | 10 | 0.0 | 0.0 | 0.00 | 0.00 | 0.00 | 76 | 1023.5 |
| 20260901221211 | 56 | 321 | 0.0 | 0.0 | 0.00 | 0.00 | 0.00 | 76 | 1023.5 |
| 20260901220216 | 56 | 331 | 0.0 | 0.0 | 0.00 | 0.00 | 0.00 | 76 | 1023.5 |
| 20260901215713 | 56 | 312 | 0.0 | 0.0 | 0.00 | 0.00 | 0.00 | 76 | 1023.5 |
| 20260901215225 | 56 | 313 | 0.0 | 0.0 | 0.00 | 0.00 | 0.00 | 77 | 1023.6 |
| 20260901214715 | 56 | 313 | 0.0 | 0.0 | 0.00 | 0.00 | 0.00 | 77 | 1023.5 |
| 20260901213720 | 56 | 19 | 0.0 | 0.0 | 0.00 | 0.00 | 0.00 | 76 | 1023.6 |
| 20260901212726 | 56 | 22 | 0.0 | 0.0 | 0.00 | 0.00 | 0.00 | 77 | 1023.5 |
| 20260901212241 | 56 | 5 | 0.0 | 0.0 | 0.00 | 0.00 | 0.00 | 76 | 1023.5 |
| 20260901211729 | 56 | 5 | 0.0 | 0.0 | 0.00 | 0.00 | 0.00 | 77 | 1023.5 |
| 20260901211210 | 56 | 355 | 0.0 | 0.0 | 0.00 | 0.00 | 0.00 | 77 | 1023.5 |
| 20260901210228 | 56 | 355 | 0.0 | 0.0 | 0.00 | 0.00 | 0.00 | 77 | 1023.6 |
| 20260901205722 | 56 | 355 | 0.0 | 0.0 | 0.00 | 0.00 | 0.00 | 76 | 1023.6 |
| 20260901205222 | 57 | 355 | 0.0 | 0.0 | 0.00 | 0.00 | 0.00 | 76 | 1023.6 |